[Iaude] MPEC F90: 2019 VZ50 [a=44.45,e=0.17,i=5.3,H=8.6]
    mpec at cfa.harvard.edu 
    mpec at cfa.harvard.edu
       
    Wed Mar 27 11:16:25 EDT 2024
    
    
  
M.P.E.C. 2024-F90                                Issued 2024 March 27, 15:15 UT
     The Minor Planet Electronic Circulars contain information on unusual
         minor planets, routine data on comets and natural satellites,
         and occasional editorial announcements.  They are published
    on behalf of Division F of the International Astronomical Union by the
          Minor Planet Center, Smithsonian Astrophysical Observatory,
                          Cambridge, MA 02138, U.S.A.
			  
             Prepared using the Tamkin Foundation Computer Network
                              MPC at CFA.HARVARD.EDU
            URL https://www.minorplanetcenter.net/    ISSN 1523-6714
                                   2019 VZ50                                    
Observations:
     K19V50Z 4C2017 06 24.50169 23 21 59.51 -00 45 27.5          24.3 i1EF090T09
     K19V50Z 4C2017 06 24.58263 23 21 59.47 -00 45 27.2          24.1 i1EF090T09
     K19V50Z 4C2017 06 24.60432 23 21 59.46 -00 45 27.2          23.8 i1EF090T09
     K19V50Z 4C2019 10 27.21084 23 25 42.23 -00 01 26.0          24.9 r1EF090T09
     K19V50Z 4C2019 10 27.22075 23 25 42.20 -00 01 26.2          24.6 r1EF090T09
     K19V50Z 4C2019 10 27.23054 23 25 42.17 -00 01 26.4          24.6 r1EF090T09
     K19V50Z 4C2019 10 27.24037 23 25 42.13 -00 01 26.7          24.4 r1EF090T09
     K19V50Z 4C2019 10 27.24524 23 25 42.11 -00 01 26.7          24.7 r1EF090T09
     K19V50Z 4C2019 11 01.21232 23 25 27.13 -00 03 18.1          25.0 g1EF090T09
     K19V50Z 4C2019 11 01.29000 23 25 26.92 -00 03 19.8          25.2 g1EF090T09
     K19V50Z 4C2019 11 01.29495 23 25 26.89 -00 03 20.1          24.6 g1EF090T09
     K19V50Z 4C2019 11 01.37860 23 25 26.64 -00 03 21.8          24.9 g1EF090T09
     K19V50Z 4C2019 11 01.45822 23 25 26.42 -00 03 23.5          25.1 g1EF090T09
     K19V50Z*4C2019 11 02.20667 23 25 24.34 -00 03 38.6          24.1 i1EF090T09
     K19V50Z 4C2019 11 02.22066 23 25 24.32 -00 03 38.7          24.6 i1EF090T09
     K19V50Z 4C2019 11 02.23475 23 25 24.28 -00 03 39.2          23.5 i1EF090T09
     K19V50Z 4C2019 11 29.20828 23 24 40.21 -00 10 07.6          24.6 r1EF090T09
     K19V50Z 4C2019 11 29.21333 23 24 40.20 -00 10 07.8          24.9 r1EF090T09
     K19V50Z 4C2019 11 29.21828 23 24 40.20 -00 10 07.8          24.9 r1EF090T09
     K19V50Z 4C2019 11 29.22334 23 24 40.20 -00 10 07.8          25.2 r1EF090T09
     K19V50Z 4C2019 11 29.24183 23 24 40.19 -00 10 07.9          24.6 r1EF090T09
     K19V50Z 4C2019 11 29.24675 23 24 40.19 -00 10 07.9          24.6 r1EF090T09
Observer details:
T09 Subaru Telescope, Maunakea.  Observers H. Aihara, Y. AlSayyad, M. Ando, R.
    Armstrong, J. Bosch, E. Egami, H. Furusawa, J. Furusawa, S. Harasawa, Y.
    Harikane, B.-C. Hsieh, H. Ikeda, K. Ito, I. Iwata, T. Kodama, M. Koike, M.
    Kokubo, Y. Komiyama, X. Li, Y. Liang, Y.-T. Lin, R. H. Lupton, N. B. Lust,
    L. A. MacArthur, K. Mawatari, S. Mineo, H. Miyatake, S. Miyazaki, S. More,
    T. Morishima, H. Murayama, K. Nakajima, F. Nakata, A. J. Nishizawa, M.
    Oguri, N. Okabe, Y. Okura, Y. Ono, K. Osato, M. Ouchi, Y.-C. Pan, A. A.
    Plazas Malagon, P. A. Price, S. L. Reed, E. S. Rykoff, T. Shibuya, M.
    Simunovic, M. A. Strauss, K. Sugimori, Y. Suto, N. Suzuki, M. Takada, Y.
    Takagi, T. Takata, S. Takita, M. Tanaka, S. Tang, D. S. Taranu, T. Terai,
    Y. Toba, E. L. Turner, H. Uchiyama, B. Vijarnwannaluk, C. Z. Waters, Y.
    Yamada, N. Yamamoto, T. Yamashita.  Measurers H. Fukuyama, R. Aikawa, M.
    Yoshimi.  8.2-m f/2.0 reflector + CCD(HSC).
Orbital elements:
2019 VZ50                                                                       
Epoch 2024 Mar. 31.0 TT = JDT 2460400.5                 Alexandersen            
M  48.53325              (2000.0)            P               Q                  
n   0.00332609     Peri.  339.70781     +0.41165056     +0.90895326             
a  44.4474236      Node   314.53414     -0.82286082     +0.33961085             
e   0.1722563      Incl.    5.30750     -0.39171915     +0.24180247             
P 296              H    8.65          G   0.15           U   9                  
Residuals in seconds of arc
170624 T09  0.1+  0.0     191101 T09  0.0   0.3-    191129 T09  0.0   0.1+
170624 T09  0.0   0.0     191101 T09  0.2+  0.3-    191129 T09  0.1-  0.1-
170624 T09  0.0   0.1-    191101 T09  0.0   0.5-    191129 T09  0.0   0.0
191027 T09  0.0   0.1+    191101 T09  0.1-  0.4-    191129 T09  0.0   0.0
191027 T09  0.0   0.1+    191101 T09  0.0   0.4-    191129 T09  0.0   0.0
191027 T09  0.0   0.2+    191102 T09  0.1-  0.2+    191129 T09  0.0   0.1+
191027 T09  0.1-  0.1+    191102 T09  0.2+  0.4+
191027 T09  0.1-  0.2+    191102 T09  0.2+  0.2+
Ephemeris:
2019 VZ50                a,e,i = 44.45, 0.17, 5                  q = 36.7911
Date    TT    R. A. (2000) Decl.     Delta      r    Elong.  Phase     V
2024 02 26    23 50 18.5 +02 57 09  41.1514 40.2400    22.7     0.5    24.9
...
2024 03 12    23 51 48.2 +03 06 42  41.2284 40.2462     8.6     0.2    24.8
...
2024 03 20    23 52 37.2 +03 12 05  41.2432 40.2495     3.7     0.1    24.8
...
2024 03 26    23 53 13.8 +03 16 10  41.2422 40.2519     6.8     0.2    24.8
2024 03 27    23 53 19.9 +03 16 51  41.2410 40.2523     7.6     0.2    24.8
2024 03 28    23 53 26.0 +03 17 32  41.2396 40.2527     8.5     0.2    24.8
...
2024 04 03    23 54 02.0 +03 21 39  41.2250 40.2552    13.9     0.3    24.8
...
2024 04 11    23 54 48.8 +03 27 05  41.1900 40.2585    21.4     0.5    24.9
...
2024 04 26    23 56 10.2 +03 36 50  41.0793 40.2647    35.5     0.8    24.9
M. P. C. Staff               (C) Copyright 2024 MPC           M.P.E.C. 2024-F90
    
    
More information about the Iaude
mailing list